Regional Weather Roundup
Issued by NWS

Home | Current Version | Previous Version | Graphics & Text | Print | Product List | Glossary On
Versions: 1 2 3 4 5 6 7 8 9 10 11 12 13 14 15 16 17 18 19 20 21 22 23 24 25 26 27 28 29 30 31 32 33 34 35 36 37 38 39 40 41 42 43 44 45 46 47 48 49 50
000
ASUS43 KLOT 051101
RWRIL

ILLINOIS REGIONAL WEATHER ROUNDUP
NATIONAL WEATHER SERVICE CHICAGO/ROMEOVILLE IL
600 AM CDT WED AUG 05 2015

NOTE: "FAIR" INDICATES FEW OR NO CLOUDS BELOW 12,000 FEET WITH NO
SIGNIFICANT WEATHER AND/OR OBSTRUCTIONS TO VISIBILITY.

* THESE STATIONS ARE NOT UNDER NWS QUALITY CONTROL. THEY ALSO MAY NOT
  REPORT WEATHER SUCH AS PRECIPITATION OR FOG.

ILZ001-002-007-009-015-016-024-051200-
NORTHWEST ILLINOIS

CITY           SKY/WX    TMP DP  RH WIND       PRES   REMARKS
MOLINE         CLEAR     63  60  90 CALM      30.02R
STERLING*      CLEAR     57  55  94 E5        30.01S
$$

ILZ003-004-008-010-011-017-018-051200-
NORTH CENTRAL ILLINOIS

CITY           SKY/WX    TMP DP  RH WIND       PRES   REMARKS
ROCKFORD       PTCLDY    57  53  86 CALM      30.07R
$$

ILZ005-006-012>014-019>023-051200-
NORTHEAST ILLINOIS

CITY           SKY/WX    TMP DP  RH WIND       PRES   REMARKS
CHICAGO-OHARE  MOCLDY    62  58  86 W3        30.05R
CHICAGO-MIDWAY MOCLDY    66  59  78 CALM      30.04S
AURORA         CLEAR     54  51  90 CALM      30.06R
WAUKEGAN       CLEAR     60  58  92 W5        30.04R
DUPAGE AIRPORT CLEAR     57  54  89 N3        30.05R
WHEELING       CLEAR     62  57  83 CALM      30.06S
NORTHERLY ISL    N/A     69  58  67 SW5         N/A
$$

LMZ740>746-051200-
SOUTHERN LAKE MICHIGAN

STATION/POSITION SKY/WX   TEMP    WIND        PRES    VSBY  WAVE
                          AIR SEA DIR/SP/G                  HT/PER
                          (F)     (DEG/KT/KT) (MB)    (MI)  (FT/S)
HARRISON CRIB              70     280/  4/  5   N/A
BURNHAM HARBOR             69     260/  5       N/A
CALUMET HARBOR             67     230/  3/  5   N/A
BURNS HARBOR               65     180/  4/  7 1017.6R
MICHIGAN CITY              67     150/  4/  5   N/A
MICHIGAN CITY 6N           70 73  220/  4/  4   N/A           1
ST. JOSEPH                 71 74  250/  6/  8   N/A           0
$$

ILZ025>027-034>036-040-047-049-050-058-095>099-051200-
WEST-CENTRAL ILLINOIS

CITY           SKY/WX    TMP DP  RH WIND       PRES   REMARKS
QUINCY         PTCLDY    65  63  93 NE5       30.00S
MACOMB*        CLEAR     62  62  98 CALM      30.04R
$$

ILZ028>032-037-038-041>044-048-051>054-059>061-051200-
CENTRAL ILLINOIS

CITY           SKY/WX    TMP DP  RH WIND       PRES   REMARKS
DECATUR        CLEAR     63  60  90 CALM      30.03S
PEORIA         CLEAR     66  62  87 CALM      30.03S
SPRINGFIELD    CLEAR     66  62  87 E5        30.02R
TAYLORVILLE    NOT AVBL
$$

ILZ033-039-045-046-055>057-062-063-051200-
EAST-CENTRAL ILLINOIS

CITY           SKY/WX    TMP DP  RH WIND       PRES   REMARKS
CHAMPAIGN      CLEAR     63  59  87 E5        30.04F
MATTOON        CLEAR     65  60  84 S3        30.03R
$$

ILZ079-100>102-051200-
SOUTHWEST ILLINOIS

CITY           SKY/WX    TMP DP  RH WIND       PRES   REMARKS
BELLEVILLE     MOCLDY    72  71  99 S20G25    30.03R
CAHOKIA*       CLOUDY    75  66  73 S8        30.02R
$$

ILZ064>066-069>071-074>076-080>082-084>086-088>090-092>094-051200-
SOUTH-CENTRAL ILLINOIS

CITY           SKY/WX    TMP DP  RH WIND       PRES   REMARKS
CARBONDALE     MOCLDY    71  69  93 CALM      30.00R
MT. VERNON     CLOUDY    72  64  78 NE7       30.01S
SALEM*         MOCLDY    72  68  89 E3        30.01S
$$

ILZ067-068-072-073-078-083-087-091-051200-
SOUTHEAST ILLINOIS

CITY           SKY/WX    TMP DP  RH WIND       PRES   REMARKS
LAWRENCEVILLE  PTCLDY    68  66  93 NW5       30.04R
FLORA*         LGT RAIN  69  66  92 E6        30.01S
HARRISBURG*    MOCLDY    70  70 100 N8        30.01R FOG
ROBINSON*      MOCLDY    64  63  97 CALM      30.05R FOG
CARMI*         CLOUDY    70  65  84 N9        30.02R THUNDER HAZE
$$

ABBREVIATIONS USED IN REMARKS
   TC - TEMPERATURE IN CELSIUS
  WCI - WIND CHILL INDEX
   HX - HEAT INDEX
  VSB - VISIBILITY
$$




USA.gov is the U.S. government's official web portal to all federal, state and local government web resources and services.